K5LLL-13 Weather Reports


time (UTC)temp
C
wind
direction
speed
KPH
gust
KPH
rain 1hr
cm
rain 24hr
cm
rain mn
cm
humidity
%
barometer
mb
20260506185016 23 23 3.2 9.7 0.00 0.00 0.00 82 1011.6
20260506184036 22 0 4.8 12.9 0.00 0.00 0.00 81 1011.5
20260506183016 22 0 6.4 14.5 0.00 0.00 0.00 82 1011.6
20260506182016 21 68 4.8 16.1 0.00 0.00 0.00 84 1011.4
20260506181016 20 45 6.4 16.1 0.00 0.00 0.00 85 1011.5
20260506180016 20 68 6.4 14.5 0.00 0.00 0.00 86 1011.4
20260506175036 20 68 6.4 16.1 0.00 0.00 0.00 86 1011.9
20260506174016 19 23 4.8 16.1 0.00 0.00 0.00 88 1012.1
20260506173016 18 23 4.8 17.7 0.00 0.00 0.00 89 1012.3
20260506172016 18 338 6.4 17.7 0.00 0.00 0.00 90 1012.7
20260506171017 17 23 9.7 22.5 0.00 0.00 0.00 92 1012.8
20260506170016 17 23 12.9 27.4 0.00 0.00 0.00 92 1013.0
20260506165036 17 23 9.7 29.0 0.00 0.00 0.00 92 1012.9
20260506164016 18 23 11.3 32.2 0.00 0.00 0.00 90 1013.4
20260506163036 19 315 11.3 29.0 0.00 0.00 0.00 88 1013.5
20260506162036 22 315 19.3 38.6 0.00 0.00 0.00 81 1013.2
20260506161015 25 0.0 0.0 0.00 0.00 0.00 90 1013.0
20260506160016 25 0.0 1.6 0.00 0.00 0.00 90 1012.9
20260506155016 25 0.0 1.6 0.00 0.00 0.00 91 1012.6
20260506154016 25 0.0 3.2 0.00 0.00 0.00 91 1012.4
20260506153016 25 0.0 1.6 0.00 0.00 0.00 92 1012.0
20260506152036 24 0.0 1.6 0.00 0.00 0.00 92 1011.9
20260506151016 24 0.0 4.8 0.00 0.00 0.00 92 1011.6
20260506150016 24 90 3.2 8.0 0.00 0.00 0.00 92 1011.5
20260506145016 24 90 1.6 6.4 0.00 0.00 0.00 93 1011.2
20260506144016 24 68 1.6 4.8 0.00 0.00 0.00 93 1011.3
20260506143036 24 0.0 3.2 0.00 0.00 0.00 93 1011.5
20260506142015 24 0.0 1.6 0.00 0.00 0.00 94 1011.5
20260506141016 23 0.0 3.2 0.00 0.00 0.00 94 1011.2
20260506140015 23 0.0 4.8 0.00 0.00 0.00 94 1010.7
20260506135016 23 0.0 4.8 0.00 0.00 0.00 94 1010.5
20260506134015 23 0.0 3.2 0.00 0.00 0.00 95 1010.5
20260506133015 23 0.0 1.6 0.00 0.00 0.00 94 1010.4
20260506132036 23 0.0 4.8 0.00 0.00 0.00 95 1010.6
20260506131015 23 113 1.6 4.8 0.00 0.00 0.00 95 1010.6
20260506130036 23 113 1.6 4.8 0.00 0.00 0.00 95 1010.4
20260506125015 23 0.0 3.2 0.00 0.00 0.00 95 1010.5
20260506124015 23 0.0 3.2 0.00 0.00 0.00 95 1010.5
20260506123015 23 0.0 1.6 0.00 0.00 0.00 95 1010.5
20260506122055 23 0.0 1.6 0.00 0.00 0.00 95 1010.4
20260506121035 23 0.0 1.6 0.00 0.00 0.00 94 1010.3
20260506120015 23 0.0 1.6 0.00 0.00 0.00 94 1010.3
20260506115015 23 0.0 1.6 0.00 0.00 0.00 94 1010.3
20260506114015 23 0.0 1.6 0.00 0.00 0.00 93 1010.3
20260506113015 23 0.0 6.4 0.00 0.00 0.00 93 1010.2
20260506112015 23 158 1.6 6.4 0.00 0.00 0.00 93 1010.1
20260506111015 23 158 1.6 6.4 0.00 0.00 0.00 93 1010.1
20260506110015 23 158 1.6 4.8 0.00 0.00 0.00 93 1010.0
20260506105015 23 203 1.6 4.8 0.00 0.00 0.00 93 1009.9
20260506104015 23 158 1.6 6.4 0.00 0.00 0.00 93 1009.9
20260506103015 23 158 1.6 6.4 0.00 0.00 0.00 93 1009.9
20260506102015 23 158 1.6 8.0 0.00 0.00 0.00 93 1009.8
20260506101035 23 135 1.6 8.0 0.00 0.00 0.00 93 1009.7
20260506100015 23 158 3.2 9.7 0.00 0.00 0.00 93 1009.5
20260506095015 23 158 4.8 11.3 0.00 0.00 0.00 93 1009.4
20260506094017 23 158 6.4 14.5 0.00 0.00 0.00 93 1009.3
20260506093017 23 158 8.0 16.1 0.00 0.00 0.00 93 1009.1
20260506092017 23 158 9.7 19.3 0.00 0.00 0.00 93 1009.0
20260506091017 23 158 9.7 17.7 0.00 0.00 0.00 93 1009.1
20260506090037 23 135 8.0 17.7 0.00 0.00 0.00 93 1009.2
20260506085037 23 158 9.7 25.7 0.00 0.00 0.00 93 1008.8
20260506084017 23 158 14.5 24.1 0.00 0.00 0.00 93 1009.0
20260506083017 23 158 9.7 22.5 0.00 0.00 0.00 93 1008.9
20260506082017 23 180 11.3 25.7 0.00 0.00 0.00 93 1008.9
20260506081017 23 158 12.9 29.0 0.00 0.00 0.00 93 1009.0
20260506073017 23 158 11.3 22.5 0.00 0.00 0.00 94 1009.3
20260506072017 23 158 9.7 17.7 0.00 0.00 0.00 94 1009.5
20260506071017 23 158 11.3 29.0 0.00 0.00 0.00 94 1009.5
20260506062017 23 135 6.4 17.7 0.00 0.00 0.00 94 1009.5
20260506061017 23 135 6.4 16.1 0.00 0.00 0.00 94 1009.6
20260506051017 23 135 4.8 12.9 0.00 0.00 0.00 93 1009.5
20260506045015 23 135 9.7 17.7 0.00 0.00 0.00 93 1009.3
20260506044017 23 135 6.4 14.5 0.00 0.00 0.00 93 1009.3
20260506043015 23 135 6.4 16.1 0.00 0.00 0.00 93 1009.4
20260506042015 23 135 9.7 16.1 0.00 0.00 0.00 92 1009.3
20260506041037 23 135 9.7 17.7 0.00 0.00 0.00 92 1009.4
20260506040017 23 135 8.0 19.3 0.00 0.00 0.00 91 1009.3
20260506035017 23 135 8.0 14.5 0.00 0.00 0.00 91 1009.0
20260506034037 23 135 8.0 17.7 0.00 0.00 0.00 91 1008.8
20260506033017 24 135 8.0 17.7 0.00 0.00 0.00 90 1008.7
20260506032018 24 135 8.0 16.1 0.00 0.00 0.00 90 1008.6
20260506031017 24 135 6.4 11.3 0.00 0.00 0.00 89 1008.6
20260506030017 24 135 9.7 19.3 0.00 0.00 0.00 89 1008.5
20260506025017 24 135 8.0 16.1 0.00 0.00 0.00 89 1008.2
20260506024037 24 135 8.0 16.1 0.00 0.00 0.00 88 1008.3
20260506023017 25 135 9.7 16.1 0.00 0.00 0.00 88 1008.0
20260506022017 25 135 8.0 16.1 0.00 0.00 0.00 88 1007.8
20260506021017 25 135 8.0 14.5 0.00 0.00 0.00 87 1007.7
20260506020018 25 135 6.4 16.1 0.00 0.00 0.00 86 1007.7
20260506015017 25 135 6.4 16.1 0.00 0.00 0.00 85 1007.7
20260506014017 25 135 6.4 12.9 0.00 0.00 0.00 84 1007.7
20260506013017 26 135 8.0 16.1 0.00 0.00 0.00 83 1007.7
20260506012017 26 158 4.8 11.3 0.00 0.00 0.00 83 1007.7
20260506011017 26 158 1.6 6.4 0.00 0.00 0.00 83 1007.5
20260506010017 26 158 4.8 9.7 0.00 0.00 0.00 82 1007.4
20260506005017 26 135 6.4 14.5 0.00 0.00 0.00 81 1007.0
20260506004037 26 135 6.4 16.1 0.00 0.00 0.00 81 1007.0
20260506003016 27 135 8.0 17.7 0.00 0.00 0.00 81 1006.9
20260506002017 27 135 8.0 17.7 0.00 0.00 0.00 80 1006.8
20260506001017 27 135 4.8 11.3 0.00 0.00 0.00 80 1006.7
20260506000056 27 135 9.7 19.3 0.00 0.00 0.00 79 1006.7
20260505235017 27 135 11.3 19.3 0.00 0.00 0.00 79 1006.6
20260505234017 27 135 8.0 19.3 0.00 0.00 0.00 78 1006.6
20260505233036 28 135 8.0 16.1 0.00 0.00 0.00 77 1006.6
20260505232017 28 135 9.7 17.7 0.00 0.00 0.00 76 1006.5
20260505231016 28 135 4.8 12.9 0.00 0.00 0.00 75 1006.6
20260505230016 28 158 8.0 14.5 0.00 0.00 0.00 74 1006.5
20260505225016 28 158 8.0 19.3 0.00 0.00 0.00 74 1006.6
20260505224016 28 158 9.7 17.7 0.00 0.00 0.00 74 1006.6
20260505223036 28 158 9.7 24.1 0.00 0.00 0.00 74 1006.6
20260505222016 28 158 9.7 25.7 0.00 0.00 0.00 74 1006.7
20260505221016 28 180 9.7 19.3 0.00 0.00 0.00 74 1006.7
20260505220017 28 158 8.0 22.5 0.00 0.00 0.00 73 1006.9
20260505215016 28 203 8.0 20.9 0.00 0.00 0.00 74 1006.9
20260505214016 28 180 12.9 24.1 0.00 0.00 0.00 72 1007.0
20260505213016 28 203 12.9 30.6 0.00 0.00 0.00 72 1007.1
20260505212016 28 203 12.9 25.7 0.00 0.00 0.00 73 1007.2
20260505211016 28 203 9.7 22.5 0.00 0.00 0.00 75 1007.5
20260505210016 27 203 12.9 24.1 0.00 0.00 0.00 75 1007.7
20260505205016 27 203 6.4 17.7 0.00 0.00 0.00 76 1007.9
20260505204056 27 203 12.9 27.4 0.00 0.00 0.00 76 1008.1
20260505203016 27 203 14.5 27.4 0.00 0.00 0.00 77 1008.2
20260505202016 27 158 8.0 20.9 0.00 0.00 0.00 77 1008.3
20260505201016 27 203 11.3 22.5 0.00 0.00 0.00 78 1008.3
20260505200036 27 225 9.7 22.5 0.00 0.00 0.00 77 1008.4
20260505195016 27 203 14.5 25.7 0.00 0.00 0.00 78 1008.7
20260505194016 27 158 16.1 30.6 0.00 0.00 0.00 77 1008.9
20260505193016 26 158 14.5 27.4 0.00 0.00 0.00 79 1008.9
20260505191016 26 158 12.9 25.7 0.00 0.00 0.00 80 1009.2
20260505190056 26 158 11.3 20.9 0.00 0.00 0.00 81 1009.0